Year,Month,Day,Hour,Minute,Value (Times are PST for temperature in C)
2017,06,22,00,00,11.60
2017,06,22,00,01,11.50
2017,06,22,00,02,11.50
2017,06,22,00,03,11.40
2017,06,22,00,04,11.40
2017,06,22,00,05,11.40
2017,06,22,00,06,11.40
2017,06,22,00,07,11.40
2017,06,22,00,08,11.40
2017,06,22,00,09,11.30
2017,06,22,00,10,11.30
2017,06,22,00,11,11.30
2017,06,22,00,12,11.30
2017,06,22,00,13,11.30
2017,06,22,00,14,11.30
2017,06,22,00,15,11.30
2017,06,22,00,16,11.30
2017,06,22,00,17,11.30
2017,06,22,00,18,11.30
2017,06,22,00,19,11.30
2017,06,22,00,20,11.20
2017,06,22,00,21,11.20
2017,06,22,00,22,11.20
2017,06,22,00,23,11.20
2017,06,22,00,24,11.20
2017,06,22,00,25,11.20
2017,06,22,00,26,11.20
2017,06,22,00,27,11.10
2017,06,22,00,28,11.10
2017,06,22,00,29,11.10
2017,06,22,00,30,11.10
2017,06,22,00,31,11.10
2017,06,22,00,32,11.10
2017,06,22,00,33,11.10
2017,06,22,00,34,11.10
2017,06,22,00,35,11.10
2017,06,22,00,36,11.00
2017,06,22,00,37,11.00
2017,06,22,00,38,11.00
2017,06,22,00,39,11.00
2017,06,22,00,40,11.00
2017,06,22,00,41,10.90
2017,06,22,00,42,10.90
2017,06,22,00,43,10.90
2017,06,22,00,44,10.90
2017,06,22,00,45,10.90
2017,06,22,00,46,10.90
2017,06,22,00,47,10.90
2017,06,22,00,48,10.90
2017,06,22,00,49,10.90
2017,06,22,00,50,10.90
2017,06,22,00,51,10.80
2017,06,22,00,52,10.80
2017,06,22,00,53,10.80
2017,06,22,00,54,10.80
2017,06,22,00,55,10.80
2017,06,22,00,56,10.80
2017,06,22,00,57,10.80
2017,06,22,00,58,10.70
2017,06,22,00,59,10.70
2017,06,22,01,00,10.70
2017,06,22,01,01,10.70
2017,06,22,01,02,10.70
2017,06,22,01,03,10.70
2017,06,22,01,04,10.70
2017,06,22,01,05,10.70
2017,06,22,01,06,10.70
2017,06,22,01,07,10.70
2017,06,22,01,08,10.60
2017,06,22,01,09,10.60
2017,06,22,01,10,10.60
2017,06,22,01,11,10.60
2017,06,22,01,12,10.60
2017,06,22,01,13,10.60
2017,06,22,01,14,10.60
2017,06,22,01,15,10.60
2017,06,22,01,16,10.60
2017,06,22,01,17,10.60
2017,06,22,01,18,10.60
2017,06,22,01,19,10.50
2017,06,22,01,20,10.60
2017,06,22,01,21,10.60
2017,06,22,01,22,10.60
2017,06,22,01,23,10.60
2017,06,22,01,24,10.60
2017,06,22,01,25,10.60
2017,06,22,01,26,10.60
2017,06,22,01,27,10.60
2017,06,22,01,28,10.50
2017,06,22,01,29,10.50
2017,06,22,01,30,10.50
2017,06,22,01,31,10.40
2017,06,22,01,32,10.40
2017,06,22,01,33,10.40
2017,06,22,01,34,10.40
2017,06,22,01,35,10.40
2017,06,22,01,36,10.40
2017,06,22,01,37,10.40
2017,06,22,01,38,10.40
2017,06,22,01,39,10.40
2017,06,22,01,40,10.40
2017,06,22,01,41,10.40
2017,06,22,01,42,10.40
2017,06,22,01,43,10.40
2017,06,22,01,44,10.40
2017,06,22,01,45,10.40
2017,06,22,01,46,10.30
2017,06,22,01,47,10.30
2017,06,22,01,48,10.30
2017,06,22,01,49,10.30
2017,06,22,01,50,10.30
2017,06,22,01,51,10.30
2017,06,22,01,52,10.40
2017,06,22,01,53,10.40
2017,06,22,01,54,10.50
2017,06,22,01,55,10.50
2017,06,22,01,56,10.60
2017,06,22,01,57,10.60
2017,06,22,01,58,10.60
2017,06,22,01,59,10.60
2017,06,22,02,00,10.70
2017,06,22,02,01,10.60
2017,06,22,02,02,10.60
2017,06,22,02,03,10.60
2017,06,22,02,04,10.60
2017,06,22,02,05,10.60
2017,06,22,02,06,10.60
2017,06,22,02,07,10.60
2017,06,22,02,08,10.60
2017,06,22,02,09,10.60
2017,06,22,02,10,10.60
2017,06,22,02,11,10.60
2017,06,22,02,12,10.60
2017,06,22,02,13,10.50
2017,06,22,02,14,10.50
2017,06,22,02,15,10.50
2017,06,22,02,16,10.50
2017,06,22,02,17,10.50
2017,06,22,02,18,10.50
2017,06,22,02,19,10.50
2017,06,22,02,20,10.50
2017,06,22,02,21,10.50
2017,06,22,02,22,10.50
2017,06,22,02,23,10.50
2017,06,22,02,24,10.40
2017,06,22,02,25,10.40
2017,06,22,02,26,10.40
2017,06,22,02,27,10.40
2017,06,22,02,28,10.40
2017,06,22,02,29,10.40
2017,06,22,02,30,10.40
2017,06,22,02,31,10.40
2017,06,22,02,32,10.40
2017,06,22,02,33,10.40
2017,06,22,02,34,10.40
2017,06,22,02,35,10.40
2017,06,22,02,36,10.40
2017,06,22,02,37,10.40
2017,06,22,02,38,10.40
2017,06,22,02,39,10.40
2017,06,22,02,40,10.40
2017,06,22,02,41,10.40
2017,06,22,02,42,10.40
2017,06,22,02,43,10.40
2017,06,22,02,44,10.40
2017,06,22,02,45,10.40
2017,06,22,02,46,10.40
2017,06,22,02,47,10.40
2017,06,22,02,48,10.50
2017,06,22,02,49,10.50
2017,06,22,02,50,10.60
2017,06,22,02,51,10.60
2017,06,22,02,52,10.60
2017,06,22,02,53,10.60
2017,06,22,02,54,10.50
2017,06,22,02,55,10.50
2017,06,22,02,56,10.50
2017,06,22,02,57,10.40
2017,06,22,02,58,10.40
2017,06,22,02,59,10.40
2017,06,22,03,00,10.40
2017,06,22,03,01,10.40
2017,06,22,03,02,10.40
2017,06,22,03,03,10.40
2017,06,22,03,04,10.40
2017,06,22,03,05,10.40
2017,06,22,03,06,10.40
2017,06,22,03,07,10.40
2017,06,22,03,08,10.40
2017,06,22,03,09,10.40
2017,06,22,03,10,10.40
2017,06,22,03,11,10.40
2017,06,22,03,12,10.40
2017,06,22,03,13,10.40
2017,06,22,03,14,10.40
2017,06,22,03,15,10.40
2017,06,22,03,16,10.30
2017,06,22,03,17,10.30
2017,06,22,03,18,10.30
2017,06,22,03,19,10.30
2017,06,22,03,20,10.30
2017,06,22,03,21,10.30
2017,06,22,03,22,10.30
2017,06,22,03,23,10.20
2017,06,22,03,24,10.20
2017,06,22,03,25,10.20
2017,06,22,03,26,10.10
2017,06,22,03,27,10.10
2017,06,22,03,28,10.10
2017,06,22,03,29,10.00
2017,06,22,03,30,10.00
2017,06,22,03,31,10.10
2017,06,22,03,32,10.10
2017,06,22,03,33,10.10
2017,06,22,03,34,10.10
2017,06,22,03,35,10.20
2017,06,22,03,36,10.20
2017,06,22,03,37,10.20
2017,06,22,03,38,10.20
2017,06,22,03,39,10.20
2017,06,22,03,40,10.20
2017,06,22,03,41,10.20
2017,06,22,03,42,10.20
2017,06,22,03,43,10.20
2017,06,22,03,44,10.20
2017,06,22,03,45,10.20
2017,06,22,03,46,10.20
2017,06,22,03,47,10.20
2017,06,22,03,48,10.20
2017,06,22,03,49,10.10
2017,06,22,03,50,10.10
2017,06,22,03,51,10.10
2017,06,22,03,52,10.10
2017,06,22,03,53,10.00
2017,06,22,03,54,10.00
2017,06,22,03,55,10.00
2017,06,22,03,56,9.90
2017,06,22,03,57,9.90
2017,06,22,03,58,9.90
2017,06,22,03,59,9.90
2017,06,22,04,00,9.90
2017,06,22,04,01,9.90
2017,06,22,04,02,9.90
2017,06,22,04,03,9.90
2017,06,22,04,04,9.90
2017,06,22,04,08,9.90
2017,06,22,04,09,9.90
2017,06,22,04,10,9.90
2017,06,22,04,11,9.90
2017,06,22,04,12,9.90
2017,06,22,04,13,9.90
2017,06,22,04,14,9.90
2017,06,22,04,15,9.80
2017,06,22,04,16,9.80
2017,06,22,04,17,9.80
2017,06,22,04,18,9.80
2017,06,22,04,19,9.80
2017,06,22,04,20,9.80
2017,06,22,04,21,9.80
2017,06,22,04,22,9.80
2017,06,22,04,23,9.80
2017,06,22,04,24,9.80
2017,06,22,04,25,9.80
2017,06,22,04,26,9.80
2017,06,22,04,27,9.80
2017,06,22,04,28,9.80
2017,06,22,04,29,9.80
2017,06,22,04,30,9.80
2017,06,22,04,31,9.80
2017,06,22,04,32,9.80
2017,06,22,04,33,9.80
2017,06,22,04,34,9.80
2017,06,22,04,35,9.80
2017,06,22,04,36,9.80
2017,06,22,04,37,9.80
2017,06,22,04,38,9.80
2017,06,22,04,39,9.90
2017,06,22,04,40,9.90
2017,06,22,04,41,9.90
2017,06,22,04,42,9.90
2017,06,22,04,43,10.00
2017,06,22,04,44,10.00
2017,06,22,04,45,10.00
2017,06,22,04,46,10.00
2017,06,22,04,47,10.00
2017,06,22,04,48,10.00
2017,06,22,04,49,10.00
2017,06,22,04,50,10.00
2017,06,22,04,51,10.00
2017,06,22,04,52,10.00
2017,06,22,04,53,10.00
2017,06,22,04,54,10.00
2017,06,22,04,55,10.10
2017,06,22,04,56,10.10
2017,06,22,04,57,10.10
2017,06,22,04,58,10.00
2017,06,22,04,59,10.00
2017,06,22,05,00,10.00
2017,06,22,05,01,10.00
2017,06,22,05,02,10.10
2017,06,22,05,03,10.10
2017,06,22,05,04,10.10
2017,06,22,05,05,10.10
2017,06,22,05,06,10.10
2017,06,22,05,07,10.10
2017,06,22,05,08,10.00
2017,06,22,05,09,10.00
2017,06,22,05,10,10.00
2017,06,22,05,11,9.90
2017,06,22,05,12,9.90
2017,06,22,05,13,9.90
2017,06,22,05,14,9.90
2017,06,22,05,15,9.80
2017,06,22,05,16,9.80
2017,06,22,05,17,9.80
2017,06,22,05,18,9.80
2017,06,22,05,19,9.80
2017,06,22,05,20,9.80
2017,06,22,05,21,9.80
2017,06,22,05,22,9.90
2017,06,22,05,23,9.90
2017,06,22,05,24,9.90
2017,06,22,05,25,9.90
2017,06,22,05,26,9.90
2017,06,22,05,27,9.90
2017,06,22,05,28,9.90
2017,06,22,05,29,9.90
2017,06,22,05,30,9.90
2017,06,22,05,31,9.90
2017,06,22,05,32,9.90
2017,06,22,05,33,9.90
2017,06,22,05,34,9.80
2017,06,22,05,35,9.80
2017,06,22,05,36,9.90
2017,06,22,05,37,9.90
2017,06,22,05,38,9.90
2017,06,22,05,39,9.90
2017,06,22,05,40,9.90
2017,06,22,05,41,9.90
2017,06,22,05,42,9.90
2017,06,22,05,43,9.90
2017,06,22,05,44,9.90
2017,06,22,05,45,9.90
2017,06,22,05,46,9.90
2017,06,22,05,47,10.00
2017,06,22,05,48,10.00
2017,06,22,05,49,10.00
2017,06,22,05,50,10.10
2017,06,22,05,51,10.10
2017,06,22,05,52,10.10
2017,06,22,05,53,10.10
2017,06,22,05,54,10.20
2017,06,22,05,55,10.20
2017,06,22,05,56,10.20
2017,06,22,05,57,10.20
2017,06,22,05,58,10.20
2017,06,22,05,59,10.20
2017,06,22,06,00,10.20
2017,06,22,06,01,10.20
2017,06,22,06,02,10.20
2017,06,22,06,03,10.10
2017,06,22,06,04,10.10
2017,06,22,06,05,10.10
2017,06,22,06,06,10.10
2017,06,22,06,07,10.10
2017,06,22,06,08,10.20
2017,06,22,06,09,10.20
2017,06,22,06,10,10.20
2017,06,22,06,11,10.20
2017,06,22,06,12,10.20
2017,06,22,06,13,10.20
2017,06,22,06,14,10.20
2017,06,22,06,15,10.20
2017,06,22,06,16,10.30
2017,06,22,06,17,10.30
2017,06,22,06,18,10.40
2017,06,22,06,19,10.40
2017,06,22,06,20,10.50
2017,06,22,06,21,10.50
2017,06,22,06,22,10.50
2017,06,22,06,23,10.60
2017,06,22,06,24,10.60
2017,06,22,06,25,10.70
2017,06,22,06,26,10.70
2017,06,22,06,27,10.80
2017,06,22,06,28,10.80
2017,06,22,06,29,10.80
2017,06,22,06,30,10.90
2017,06,22,06,31,10.90
2017,06,22,06,32,10.90
2017,06,22,06,33,11.00
2017,06,22,06,34,11.00
2017,06,22,06,35,11.00
2017,06,22,06,36,11.10
2017,06,22,06,37,11.10
2017,06,22,06,38,11.20
2017,06,22,06,39,11.20
2017,06,22,06,40,11.30
2017,06,22,06,41,11.40
2017,06,22,06,42,11.40
2017,06,22,06,43,11.50
2017,06,22,06,44,11.60
2017,06,22,06,45,11.70
2017,06,22,06,46,11.70
2017,06,22,06,47,11.80
2017,06,22,06,48,11.90
2017,06,22,06,49,11.90
2017,06,22,06,50,12.00
2017,06,22,06,51,12.10
2017,06,22,06,52,12.20
2017,06,22,06,53,12.20
2017,06,22,06,54,12.30
2017,06,22,06,55,12.40
2017,06,22,06,56,12.40
2017,06,22,06,57,12.50
2017,06,22,06,58,12.50
2017,06,22,06,59,12.60
2017,06,22,07,00,12.70
2017,06,22,07,01,12.80
2017,06,22,07,02,12.90
2017,06,22,07,03,13.00
2017,06,22,07,04,13.10
2017,06,22,07,05,13.20
2017,06,22,07,06,13.30
2017,06,22,07,07,13.40
2017,06,22,07,08,13.50
2017,06,22,07,09,13.50
2017,06,22,07,10,13.60
2017,06,22,07,11,13.70
2017,06,22,07,12,13.80
2017,06,22,07,13,13.90
2017,06,22,07,14,14.00
2017,06,22,07,15,14.10
2017,06,22,07,16,14.20
2017,06,22,07,17,14.20
2017,06,22,07,18,14.30
2017,06,22,07,19,14.30
2017,06,22,07,20,14.30
2017,06,22,07,21,14.40
2017,06,22,07,22,14.50
2017,06,22,07,23,14.50
2017,06,22,07,24,14.60
2017,06,22,07,25,14.60
2017,06,22,07,26,14.70
2017,06,22,07,27,14.70
2017,06,22,07,28,14.70
2017,06,22,07,29,14.70
2017,06,22,07,30,14.60
2017,06,22,07,31,14.60
2017,06,22,07,32,14.70
2017,06,22,07,33,14.70
2017,06,22,07,34,14.80
2017,06,22,07,35,14.80
2017,06,22,07,36,14.90
2017,06,22,07,37,15.00
2017,06,22,07,38,15.10
2017,06,22,07,39,15.20
2017,06,22,07,40,15.30
2017,06,22,07,41,15.30
2017,06,22,07,42,15.40
2017,06,22,07,43,15.50
2017,06,22,07,44,15.50
2017,06,22,07,45,15.60
2017,06,22,07,46,15.70
2017,06,22,07,47,15.70
2017,06,22,07,48,15.60
2017,06,22,07,49,15.60
2017,06,22,07,50,15.60
2017,06,22,07,51,15.60
2017,06,22,07,52,15.60
2017,06,22,07,53,15.50
2017,06,22,07,54,15.60
2017,06,22,07,55,15.60
2017,06,22,07,56,15.60
2017,06,22,07,57,15.70
2017,06,22,07,58,15.80
2017,06,22,07,59,15.80
2017,06,22,08,00,15.90
2017,06,22,08,01,15.90
2017,06,22,08,02,16.00
2017,06,22,08,03,16.00
2017,06,22,08,04,16.10
2017,06,22,08,05,16.10
2017,06,22,08,06,16.20
2017,06,22,08,07,16.10
2017,06,22,08,08,16.00
2017,06,22,08,09,15.90
2017,06,22,08,10,15.80
2017,06,22,08,11,15.80
2017,06,22,08,12,15.70
2017,06,22,08,13,15.60
2017,06,22,08,14,15.60
2017,06,22,08,15,15.60
2017,06,22,08,16,15.50
2017,06,22,08,17,15.60
2017,06,22,08,18,15.60
2017,06,22,08,19,15.60
2017,06,22,08,20,15.60
2017,06,22,08,21,15.60
2017,06,22,08,22,15.70
2017,06,22,08,23,15.70
2017,06,22,08,24,15.80
2017,06,22,08,25,15.80
2017,06,22,08,26,15.90
2017,06,22,08,27,16.00
2017,06,22,08,28,16.00
2017,06,22,08,29,16.10
2017,06,22,08,30,16.10
2017,06,22,08,31,16.20
2017,06,22,08,32,16.20
2017,06,22,08,33,16.30
2017,06,22,08,34,16.30
2017,06,22,08,35,16.40
2017,06,22,08,36,16.40
2017,06,22,08,37,16.40
2017,06,22,08,38,16.40
2017,06,22,08,39,16.40
2017,06,22,08,40,16.40
2017,06,22,08,41,16.40
2017,06,22,08,42,16.40
2017,06,22,08,43,16.40
2017,06,22,08,44,16.50
2017,06,22,08,45,16.50
2017,06,22,08,46,16.50
2017,06,22,08,47,16.60
2017,06,22,08,48,16.50
2017,06,22,08,49,16.50
2017,06,22,08,50,16.60
2017,06,22,08,51,16.60
2017,06,22,08,52,16.60
2017,06,22,08,53,16.60
2017,06,22,08,54,16.60
2017,06,22,08,55,16.60
2017,06,22,08,56,16.60
2017,06,22,08,57,16.60
2017,06,22,08,58,16.60
2017,06,22,08,59,16.60
2017,06,22,09,00,16.60
2017,06,22,09,01,16.60
2017,06,22,09,02,16.60
2017,06,22,09,03,16.60
2017,06,22,09,04,16.60
2017,06,22,09,05,16.60
2017,06,22,09,06,16.60
2017,06,22,09,07,16.60
2017,06,22,09,08,16.60
2017,06,22,09,09,16.60
2017,06,22,09,10,16.60
2017,06,22,09,11,16.60
2017,06,22,09,12,16.70
2017,06,22,09,13,16.70
2017,06,22,09,14,16.70
2017,06,22,09,15,16.70
2017,06,22,09,16,16.70
2017,06,22,09,17,16.80
2017,06,22,09,18,16.80
2017,06,22,09,19,16.80
2017,06,22,09,20,16.80
2017,06,22,09,21,16.70
2017,06,22,09,22,16.70
2017,06,22,09,23,16.60
2017,06,22,09,24,16.60
2017,06,22,09,25,16.60
2017,06,22,09,26,16.60
2017,06,22,09,27,16.60
2017,06,22,09,28,16.60
2017,06,22,09,29,16.60
2017,06,22,09,30,16.60
2017,06,22,09,31,16.60
2017,06,22,09,32,16.50
2017,06,22,09,33,16.60
2017,06,22,09,34,16.60
2017,06,22,09,35,16.60
2017,06,22,09,36,16.60
2017,06,22,09,37,16.60
2017,06,22,09,38,16.60
2017,06,22,09,39,16.60
2017,06,22,09,40,16.50
2017,06,22,09,41,16.40
2017,06,22,09,42,16.30
2017,06,22,09,43,16.30
2017,06,22,09,44,16.20
2017,06,22,09,45,16.10
2017,06,22,09,46,16.00
2017,06,22,09,47,16.00
2017,06,22,09,48,15.90
2017,06,22,09,49,15.80
2017,06,22,09,50,15.80
2017,06,22,09,51,15.80
2017,06,22,09,52,15.80
2017,06,22,09,53,15.80
2017,06,22,09,54,15.80
2017,06,22,09,55,15.80
2017,06,22,09,56,15.90
2017,06,22,09,57,15.90
2017,06,22,09,58,15.90
2017,06,22,09,59,15.90
2017,06,22,10,00,15.90
2017,06,22,10,01,16.00
2017,06,22,10,02,16.00
2017,06,22,10,03,16.10
2017,06,22,10,04,16.10
2017,06,22,10,05,16.20
2017,06,22,10,06,16.20
2017,06,22,10,07,16.20
2017,06,22,10,08,16.30
2017,06,22,10,09,16.40
2017,06,22,10,10,16.40
2017,06,22,10,11,16.50
2017,06,22,10,12,16.60
2017,06,22,10,13,16.70
2017,06,22,10,14,16.80
2017,06,22,10,15,16.80
2017,06,22,10,16,16.90
2017,06,22,10,17,16.90
2017,06,22,10,18,16.90
2017,06,22,10,19,16.90
2017,06,22,10,20,16.90
2017,06,22,10,21,16.90
2017,06,22,10,22,17.00
2017,06,22,10,23,17.00
2017,06,22,10,24,17.00
2017,06,22,10,25,16.90
2017,06,22,10,26,16.90
2017,06,22,10,27,16.90
2017,06,22,10,28,16.90
2017,06,22,10,29,16.90
2017,06,22,10,30,17.00
2017,06,22,10,31,17.00
2017,06,22,10,32,17.00
2017,06,22,10,33,17.00
2017,06,22,10,34,16.90
2017,06,22,10,35,16.80
2017,06,22,10,36,16.80
2017,06,22,10,37,16.70
2017,06,22,10,38,16.70
2017,06,22,10,39,16.80
2017,06,22,10,40,16.80
2017,06,22,10,41,16.90
2017,06,22,10,42,17.00
2017,06,22,10,43,17.10
2017,06,22,10,44,17.20
2017,06,22,10,45,17.30
2017,06,22,10,46,17.40
2017,06,22,10,47,17.60
2017,06,22,10,48,17.70
2017,06,22,10,49,17.80
2017,06,22,10,50,17.80
2017,06,22,10,51,17.80
2017,06,22,10,52,17.70
2017,06,22,10,53,17.70
2017,06,22,10,54,17.60
2017,06,22,10,55,17.60
2017,06,22,10,56,17.50
2017,06,22,10,57,17.50
2017,06,22,10,58,17.50
2017,06,22,10,59,17.60
2017,06,22,11,00,17.60
2017,06,22,11,01,17.60
2017,06,22,11,02,17.60
2017,06,22,11,03,17.60
2017,06,22,11,04,17.60
2017,06,22,11,05,17.50
2017,06,22,11,06,17.50
2017,06,22,11,07,17.40
2017,06,22,11,08,17.40
2017,06,22,11,09,17.50
2017,06,22,11,10,17.60
2017,06,22,11,11,17.60
2017,06,22,11,12,17.60
2017,06,22,11,13,17.70
2017,06,22,11,14,17.70
2017,06,22,11,15,17.70
2017,06,22,11,16,17.70
2017,06,22,11,17,17.70
2017,06,22,11,18,17.70
2017,06,22,11,19,17.70
2017,06,22,11,20,17.70
2017,06,22,11,21,17.70
2017,06,22,11,22,17.70
2017,06,22,11,23,17.70
2017,06,22,11,24,17.80
2017,06,22,11,25,17.80
2017,06,22,11,26,17.80
2017,06,22,11,27,17.90
2017,06,22,11,28,17.90
2017,06,22,11,29,17.90
2017,06,22,11,30,18.00
2017,06,22,11,31,18.10
2017,06,22,11,32,18.20
2017,06,22,11,33,18.30
2017,06,22,11,34,18.30
2017,06,22,11,35,18.30
2017,06,22,11,36,18.30
2017,06,22,11,37,18.30
2017,06,22,11,38,18.30
2017,06,22,11,39,18.30
2017,06,22,11,40,18.30
2017,06,22,11,41,18.30
2017,06,22,11,42,18.40
2017,06,22,11,43,18.40
2017,06,22,11,44,18.40
2017,06,22,11,45,18.30
2017,06,22,11,46,18.20
2017,06,22,11,47,18.10
2017,06,22,11,48,18.00
2017,06,22,11,49,17.90
2017,06,22,11,50,17.90
2017,06,22,11,51,17.90
2017,06,22,11,52,18.00
2017,06,22,11,53,18.10
2017,06,22,11,54,18.30
2017,06,22,11,55,18.40
2017,06,22,11,56,18.50
2017,06,22,11,57,18.60
2017,06,22,11,58,18.60
2017,06,22,11,59,18.60
2017,06,22,12,00,18.70
2017,06,22,12,01,18.70
2017,06,22,12,02,18.70
2017,06,22,12,03,18.70
2017,06,22,12,04,18.50
2017,06,22,12,05,18.40
2017,06,22,12,06,18.20
2017,06,22,12,07,18.10
2017,06,22,12,08,17.90
2017,06,22,12,09,17.80
2017,06,22,12,10,17.70
2017,06,22,12,11,17.70
2017,06,22,12,12,17.70
2017,06,22,12,13,17.70
2017,06,22,12,14,17.80
2017,06,22,12,15,17.90
2017,06,22,12,16,17.90
2017,06,22,12,17,18.00
2017,06,22,12,18,18.00
2017,06,22,12,19,18.10
2017,06,22,12,20,18.10
2017,06,22,12,21,18.20
2017,06,22,12,22,18.30
2017,06,22,12,23,18.30
2017,06,22,12,24,18.40
2017,06,22,12,25,18.50
2017,06,22,12,26,18.60
2017,06,22,12,27,18.70
2017,06,22,12,28,18.80
2017,06,22,12,29,18.80
2017,06,22,12,30,18.80
2017,06,22,12,31,18.80
2017,06,22,12,32,18.70
2017,06,22,12,33,18.60
2017,06,22,12,34,18.60
2017,06,22,12,35,18.60
2017,06,22,12,36,18.60
2017,06,22,12,37,18.60
2017,06,22,12,38,18.50
2017,06,22,12,39,18.50
2017,06,22,12,40,18.40
2017,06,22,12,41,18.40
2017,06,22,12,42,18.40
2017,06,22,12,43,18.40
2017,06,22,12,44,18.40
2017,06,22,12,45,18.40
2017,06,22,12,46,18.50
2017,06,22,12,47,18.50
2017,06,22,12,48,18.60
2017,06,22,12,49,18.60
2017,06,22,12,50,18.60
2017,06,22,12,51,18.70
2017,06,22,12,52,18.70
2017,06,22,12,53,18.80
2017,06,22,12,54,18.80
2017,06,22,12,55,18.90
2017,06,22,12,56,18.90
2017,06,22,12,57,18.90
2017,06,22,12,58,18.90
2017,06,22,12,59,18.90
2017,06,22,13,00,18.90
2017,06,22,13,01,18.90
2017,06,22,13,02,19.00
2017,06,22,13,03,19.00
2017,06,22,13,04,19.00
2017,06,22,13,05,19.00
2017,06,22,13,06,19.00
2017,06,22,13,07,18.90
2017,06,22,13,08,18.90
2017,06,22,13,09,19.00
2017,06,22,13,10,19.10
2017,06,22,13,11,19.10
2017,06,22,13,12,19.20
2017,06,22,13,13,19.20
2017,06,22,13,14,19.20
2017,06,22,13,15,19.20
2017,06,22,13,16,19.20
2017,06,22,13,17,19.30
2017,06,22,13,18,19.30
2017,06,22,13,19,19.40
2017,06,22,13,20,19.50
2017,06,22,13,21,19.50
2017,06,22,13,22,19.50
2017,06,22,13,23,19.40
2017,06,22,13,24,19.40
2017,06,22,13,25,19.40
2017,06,22,13,26,19.40
2017,06,22,13,27,19.40
2017,06,22,13,28,19.40
2017,06,22,13,29,19.50
2017,06,22,13,30,19.50
2017,06,22,13,31,19.60
2017,06,22,13,32,19.60
2017,06,22,13,33,19.70
2017,06,22,13,34,19.70
2017,06,22,13,35,19.80
2017,06,22,13,36,19.80
2017,06,22,13,37,19.80
2017,06,22,13,38,19.80
2017,06,22,13,39,19.70
2017,06,22,13,40,19.70
2017,06,22,13,41,19.70
2017,06,22,13,42,19.70
2017,06,22,13,43,19.80
2017,06,22,13,44,19.90
2017,06,22,13,45,20.10
2017,06,22,13,46,20.10
2017,06,22,13,47,20.20
2017,06,22,13,48,20.20
2017,06,22,13,49,20.20
2017,06,22,13,50,20.20
2017,06,22,13,51,20.20
2017,06,22,13,52,20.20
2017,06,22,13,53,20.10
2017,06,22,13,54,19.90
2017,06,22,13,55,19.70
2017,06,22,13,56,19.50
2017,06,22,13,57,19.30
2017,06,22,13,58,19.10
2017,06,22,13,59,19.00
2017,06,22,14,00,18.90
2017,06,22,14,01,18.90
2017,06,22,14,02,18.80
2017,06,22,14,03,18.80
2017,06,22,14,04,18.80
2017,06,22,14,05,18.80
2017,06,22,14,06,18.90
2017,06,22,14,07,19.00
2017,06,22,14,08,19.10
2017,06,22,14,09,19.30
2017,06,22,14,10,19.50
2017,06,22,14,11,19.60
2017,06,22,14,12,19.80
2017,06,22,14,13,19.90
2017,06,22,14,14,19.90
2017,06,22,14,15,20.00
2017,06,22,14,16,20.00
2017,06,22,14,17,20.10
2017,06,22,14,18,20.20
2017,06,22,14,19,20.30
2017,06,22,14,20,20.40
2017,06,22,14,21,20.40
2017,06,22,14,22,20.40
2017,06,22,14,23,20.40
2017,06,22,14,24,20.30
2017,06,22,14,25,20.20
2017,06,22,14,26,20.10
2017,06,22,14,27,20.00
2017,06,22,14,28,19.90
2017,06,22,14,29,19.90
2017,06,22,14,30,19.90
2017,06,22,14,31,19.90
2017,06,22,14,32,19.90
2017,06,22,14,33,19.90
2017,06,22,14,34,19.80
2017,06,22,14,35,19.80
2017,06,22,14,36,19.80
2017,06,22,14,37,19.90
2017,06,22,14,38,20.00
2017,06,22,14,39,20.10
2017,06,22,14,40,20.20
2017,06,22,14,41,20.20
2017,06,22,14,42,20.30
2017,06,22,14,43,20.30
2017,06,22,14,44,20.40
2017,06,22,14,45,20.40
2017,06,22,14,46,20.50
2017,06,22,14,47,20.50
2017,06,22,14,48,20.50
2017,06,22,14,49,20.50
2017,06,22,14,50,20.50
2017,06,22,14,51,20.50
2017,06,22,14,52,20.60
2017,06,22,14,53,20.60
2017,06,22,14,54,20.70
2017,06,22,14,55,20.70
2017,06,22,14,56,20.80
2017,06,22,14,57,20.80
2017,06,22,14,58,20.90
2017,06,22,14,59,20.90
2017,06,22,15,00,20.90
2017,06,22,15,01,20.90
2017,06,22,15,02,20.90
2017,06,22,15,03,20.90
2017,06,22,15,04,20.80
2017,06,22,15,05,20.70
2017,06,22,15,06,20.70
2017,06,22,15,07,20.70
2017,06,22,15,08,20.70
2017,06,22,15,09,20.70
2017,06,22,15,10,20.80
2017,06,22,15,11,20.80
2017,06,22,15,12,20.90
2017,06,22,15,13,21.00
2017,06,22,15,14,21.00
2017,06,22,15,15,21.00
2017,06,22,15,16,20.90
2017,06,22,15,17,20.90
2017,06,22,15,18,20.90
2017,06,22,15,19,20.80
2017,06,22,15,20,20.70
2017,06,22,15,21,20.70
2017,06,22,15,22,20.70
2017,06,22,15,23,20.70
2017,06,22,15,24,20.80
2017,06,22,15,25,20.90
2017,06,22,15,26,21.00
2017,06,22,15,27,21.00
2017,06,22,15,28,21.10
2017,06,22,15,29,21.10
2017,06,22,15,30,21.10
2017,06,22,15,31,21.10
2017,06,22,15,32,21.10
2017,06,22,15,33,21.10
2017,06,22,15,34,21.00
2017,06,22,15,35,21.00
2017,06,22,15,36,21.00
2017,06,22,15,37,21.10
2017,06,22,15,38,21.10
2017,06,22,15,39,21.10
2017,06,22,15,40,21.10
2017,06,22,15,41,21.10
2017,06,22,15,42,21.10
2017,06,22,15,43,21.10
2017,06,22,15,44,21.10
2017,06,22,15,45,21.20
2017,06,22,15,46,21.20
2017,06,22,15,47,21.20
2017,06,22,15,48,21.20
2017,06,22,15,49,21.10
2017,06,22,15,50,21.10
2017,06,22,15,51,21.10
2017,06,22,15,52,21.00
2017,06,22,15,53,21.00
2017,06,22,15,54,21.00
2017,06,22,15,55,21.00
2017,06,22,15,56,20.90
2017,06,22,15,57,20.90
2017,06,22,15,58,20.90
2017,06,22,15,59,20.90
2017,06,22,16,00,20.80
2017,06,22,16,01,20.80
2017,06,22,16,02,20.80
2017,06,22,16,03,20.80
2017,06,22,16,04,20.80
2017,06,22,16,05,20.90
2017,06,22,16,06,20.90
2017,06,22,16,07,21.00
2017,06,22,16,08,21.00
2017,06,22,16,09,21.00
2017,06,22,16,10,21.00
2017,06,22,16,11,21.00
2017,06,22,16,12,21.00
2017,06,22,16,13,21.00
2017,06,22,16,14,21.00
2017,06,22,16,15,21.00
2017,06,22,16,16,21.00
2017,06,22,16,17,21.10
2017,06,22,16,18,21.20
2017,06,22,16,19,21.20
2017,06,22,16,20,21.30
2017,06,22,16,21,21.30
2017,06,22,16,22,21.40
2017,06,22,16,23,21.40
2017,06,22,16,24,21.40
2017,06,22,16,25,21.30
2017,06,22,16,26,21.30
2017,06,22,16,27,21.20
2017,06,22,16,28,21.20
2017,06,22,16,29,21.20
2017,06,22,16,30,21.20
2017,06,22,16,31,21.30
2017,06,22,16,32,21.20
2017,06,22,16,33,21.20
2017,06,22,16,34,21.20
2017,06,22,16,35,21.20
2017,06,22,16,36,21.20
2017,06,22,16,37,21.30
2017,06,22,16,38,21.30
2017,06,22,16,39,21.40
2017,06,22,16,40,21.40
2017,06,22,16,41,21.50
2017,06,22,16,42,21.60
2017,06,22,16,43,21.60
2017,06,22,16,44,21.50
2017,06,22,16,45,21.50
2017,06,22,16,46,21.40
2017,06,22,16,47,21.40
2017,06,22,16,48,21.40
2017,06,22,16,49,21.40
2017,06,22,16,50,21.30
2017,06,22,16,51,21.30
2017,06,22,16,52,21.30
2017,06,22,16,53,21.30
2017,06,22,16,54,21.40
2017,06,22,16,55,21.40
2017,06,22,16,56,21.40
2017,06,22,16,57,21.40
2017,06,22,16,58,21.40
2017,06,22,16,59,21.40
2017,06,22,17,00,21.40
2017,06,22,17,01,21.50
2017,06,22,17,02,21.50
2017,06,22,17,03,21.50
2017,06,22,17,04,21.50
2017,06,22,17,05,21.50
2017,06,22,17,06,21.60
2017,06,22,17,07,21.60
2017,06,22,17,08,21.70
2017,06,22,17,09,21.70
2017,06,22,17,10,21.70
2017,06,22,17,11,21.70
2017,06,22,17,12,21.70
2017,06,22,17,13,21.60
2017,06,22,17,14,21.50
2017,06,22,17,15,21.30
2017,06,22,17,16,21.30
2017,06,22,17,17,21.30
2017,06,22,17,18,21.30
2017,06,22,17,19,21.30
2017,06,22,17,20,21.40
2017,06,22,17,21,21.50
2017,06,22,17,22,21.60
2017,06,22,17,23,21.70
2017,06,22,17,24,21.80
2017,06,22,17,25,21.80